Location: Chassagnes
(44.4047°N, 4.1657°E)
Time: 07:35:41
(UTC+00:00)

Daily predictions for brighter satellites

Satellite Brightness Start Highest point End
(mag) Time Altitude Azimuth Time Altitude Azimuth Time Altitude Azimuth
Meteor 2-21 4.5 16:55:25 10° N 17:01:32 63° ENE 17:07:34 10° SSE
Cosmos 1939 Rocket 3.9 17:01:23 10° ESE 17:04:35 24° ENE 17:07:46 10° NNE
USA 308 4.3 17:01:33 10° NW 17:05:07 25° N 17:08:40 10° ENE
CZ-4B R/B 1.6 17:03:30 10° NNE 17:06:36 42° E 17:09:35 10° S
ATLAS 5 CENTAUR R/B 4.0 17:04:07 10° WNW 17:06:41 15° NNW 17:09:25 10° N
Cosmos 1606 Rocket 3.6 17:07:25 10° S 17:11:41 58° E 17:16:01 10° NNE
Helios 1A Rocket 4.2 17:08:43 10° ESE 17:11:51 21° ENE 17:14:59 10° NNE
GENESIS II 4.4 17:10:19 10° SW 17:14:21 84° NW 17:18:24 10° NE
FALCON 9 DEB 2.9 17:11:20 10° SW 17:14:32 73° SE 17:17:44 10° ENE
CZ-4B R/B 3.5 17:09:57 10° S 17:15:33 76° WSW 17:21:06 10° NNW
Okean-O 3.7 17:14:46 10° ESE 17:18:18 24° ENE 17:21:51 10° NNE
AQUARIUS 4.3 17:15:42 10° SSE 17:20:12 82° WSW 17:24:44 10° NNW
Cosmos 1656 4.3 17:15:32 10° SSE 17:20:28 34° ESE 17:25:29 10° NE
SKYMED 2 4.2 17:16:48 10° NNE 17:20:48 34° E 17:24:44 10° SSE
Cosmos 1689 Rocket 3.2 17:19:33 10° NE 17:21:58 23° E 17:24:22 10° SSE
Cosmos 1400 Rocket 3.4 17:19:40 10° SSE 17:23:26 36° E 17:27:12 10° NNE
H-2A R/B 3.4 17:22:24 10° ESE 17:26:16 20° ENE 17:30:11 10° NNE
CZ-4 R/B 2.4 17:25:26 10° ESE 17:28:34 24° ENE 17:31:42 10° NNE
Cosmos 2227 Rocket 2.7 17:23:56 10° NNW 17:29:15 40° ENE 17:34:32 10° SE
Cosmos 2058 4.2 17:27:10 10° NNE 17:30:10 19° ENE 17:33:10 10° ESE
Atlas Centaur 2 4.5 17:24:08 10° SSW 17:30:26 24° SSE 17:36:50 10° ESE
Meteor 2-16 Rocket 4.4 17:24:29 10° N 17:30:35 68° E 17:36:38 10° SSE
Cosmos 1892 3.7 17:28:19 10° NNE 17:31:37 25° ENE 17:34:53 10° SE
Cosmos 2263 Rocket 4.2 17:33:10 10° NNE 17:33:55 10° NE 17:34:40 10° NE
Cosmos 1408 4.0 17:33:08 10° NNE 17:35:45 18° ENE 17:37:15 15° ESE
Cosmos 1244 Rocket 4.5 17:32:00 10° N 17:38:10 66° E 17:44:24 10° SSE
CZ-4C R/B 4.4 17:35:56 10° NNW 17:39:55 16° NNE 17:44:18 10° NE
Cosmos 1300 2.8 17:37:59 10° SSW 17:41:46 79° W 17:45:37 10° N
Cosmos 1953 Rocket 3.6 17:38:09 10° N 17:42:35 87° W 17:47:02 10° S
Cosmos 2058 Rocket 3.1 17:40:37 10° S 17:45:03 65° E 17:49:32 10° NNE
Cosmos 1697 Rocket 3.5 17:40:22 10° SSE 17:45:05 29° ESE 17:49:37 11° NE
SL-4 R/B 3.2 17:44:03 10° NW 17:47:05 26° N 17:49:04 17° NE
IRS-1C Rocket 4.0 17:41:58 10° SSE 17:47:12 74° ENE 17:52:29 10° N
CZ-2D R/B 3.3 17:43:42 10° SSE 17:47:24 50° ENE 17:51:06 10° N
SeaSat 1 3.8 17:46:27 17° ENE 17:48:10 20° NE 17:51:45 10° N
NOSS 3-3 (A) 4.4 17:44:32 10° S 17:49:40 35° ESE 17:54:18 14° NE
NOSS 3-3 (C) 4.5 17:44:37 10° S 17:49:48 35° ESE 17:54:24 15° NE
Cosmos 1346 Rocket 3.5 17:46:56 10° N 17:50:32 31° ENE 17:54:06 10° SE
USA 305 3.8 17:47:27 10° NW 17:51:22 33° NNE 17:53:27 22° ENE
Cosmos 1825 3.8 17:49:58 10° NNE 17:51:38 17° NE 17:51:38 17° NE
Cosmos 44 3.7 17:49:04 10° SW 17:53:29 58° NW 17:58:14 10° NNE
Cosmos 1315 Rocket 3.7 17:51:19 10° SSE 17:54:40 27° E 17:56:19 20° NE
USA 215 4.3 17:51:39 15° ENE 17:56:05 31° N 18:01:40 10° NW
USA 306 3.7 17:53:51 10° NW 17:57:49 35° NNE 17:59:35 25° ENE
SAR-Lupe-4 4.1 17:56:32 10° N 18:00:05 61° WNW 18:03:37 10° SSW
ERS-2 4.0 17:56:48 10° N 18:00:06 32° WNW 18:03:22 10° SW
BREEZE-M R/B 4.0 17:57:23 10° WNW 18:01:10 49° NNE 18:05:18 22° ENE
ATLAS 2AS CENTAUR R/B 4.0 17:55:47 10° NNW 18:01:59 26° NNE 18:05:17 19° ENE
Cosmos 968 Rocket 3.4 17:59:39 10° NNW 18:04:51 62° ENE 18:09:57 10° SSE
Cosmos 1340 2.6 18:01:42 10° NNW 18:05:30 83° W 18:09:15 10° S
Cosmos 1980 Rocket 3.3 18:03:29 10° SSE 18:07:19 23° ESE 18:07:19 23° ESE
COSMO-SKYMED 1 2.8 18:04:35 10° N 18:08:56 73° WNW 18:13:15 10° SSW
Cosmos 2297 Rocket 2.2 18:03:34 10° NNW 18:09:17 88° WSW 18:14:56 10° SSE
MOS 1 Rocket 3.8 18:05:18 10° NNE 18:09:43 39° E 18:14:22 10° SSE
Cosmos 1076 Rocket 3.9 18:06:39 10° N 18:10:37 37° ENE 18:11:35 32° ESE
Aureole 3 Rocket 3.4 18:06:49 10° SSW 18:10:40 72° W 18:16:01 10° N
In-Cosmos 22 Rocket 4.1 18:06:20 10° N 18:11:44 87° W 18:17:12 10° S
S3M 3.9 18:08:32 10° S 18:14:31 62° E 18:20:36 10° NNE
CSL-04 Debris 4.3 18:09:29 10° SE 18:14:43 52° ENE 18:20:01 10° N
SL-08 ROCKET BODY 4.4 18:15:19 10° N 18:21:28 83° E 18:27:39 10° S
Lacrosse 5 3.6 18:18:00 10° NW 18:21:40 20° N 18:23:30 16° NNE
YAOGAN 1 2.4 18:18:07 10° SSE 18:22:25 82° ENE 18:26:47 10° N
FALCON 9 DEB 4.2 18:19:49 10° W 18:22:48 34° NNW 18:23:30 30° N
Cosmos 2360 4.4 18:18:24 10° S 18:23:49 46° ESE 18:26:15 29° NE
Aureole 3 4.5 18:21:35 10° SW 18:24:29 32° WNW 18:27:13 10° N
Cosmos 1486 Rocket 4.0 18:20:00 10° NNW 18:25:21 86° WSW 18:30:40 10° SSE
Cosmos 1417 Rocket 4.5 18:19:20 10° S 18:25:35 89° W 18:31:58 10° N
FALCON 9 DEB 4.3 18:24:08 10° W 18:27:02 31° NNW 18:27:30 29° N
Milstar 3 4.3 18:23:30 10° SW 18:28:32 21° S 18:31:53 15° SE
Cosmos 1812 Rocket 3.6 18:25:10 10° S 18:29:28 55° E 18:30:37 41° NE
Cosmos 1455 2.0 18:26:31 10° S 18:30:15 74° E 18:31:13 47° NNE
CZ-2C R/B 3.3 18:26:39 10° SSE 18:32:29 88° WSW 18:38:10 10° NNW
Cosmos 1503 Rocket 3.9 18:29:57 10° NNW 18:35:11 68° ENE 18:37:12 37° SE
Cosmos 44 Rocket 3.8 18:31:44 10° S 18:35:27 40° SE 18:35:27 40° SE
Cosmos 2278 4.0 18:31:46 10° S 18:36:45 42° ESE 18:36:45 42° ESE
Cosmos 2219 4.1 18:34:00 10° NW 18:39:31 49° WSW 18:45:00 10° S
DMSP B5D1-3 4.4 18:35:03 10° NNE 18:40:13 81° ESE 18:45:23 10° SSW
USA 307 3.1 18:36:45 10° NW 18:40:52 56° NNE 18:40:52 56° NNE
Meteor 2-10 Rocket 3.7 18:38:19 10° SSW 18:43:38 73° WNW 18:48:47 10° N
USA 308 3.1 18:41:35 10° NW 18:45:31 58° N 18:45:31 58° N
Cosmos 1354 Rocket 3.9 18:41:28 10° NNW 18:46:45 74° ENE 18:47:52 55° SE
Cosmos 2082 3.6 18:42:35 10° NNW 18:48:22 87° ENE 18:50:46 37° SSE
Okean-O 4.1 18:50:30 10° SSW 18:54:35 36° W 18:58:42 10° NNW
Cosmos 1992 Rocket 4.2 18:50:33 10° SSW 18:55:43 68° WNW 18:59:48 17° NNE
ARGOS 3.0 18:54:41 46° SSE 18:56:22 82° ENE 19:01:49 10° NNW
Cosmos 2369 3.7 18:54:56 10° SSW 19:00:40 84° WNW 19:03:10 35° NNE
CZ-4 R/B 3.4 19:00:09 10° SSW 19:03:30 27° W 19:06:50 10° NW
H-2A R/B 2.5 18:59:49 10° S 19:05:10 64° WSW 19:10:37 10° NNW
Ariane Rocket 4.4 19:07:51 27° N 19:07:51 27° N 19:10:17 10° N
GEOS 3 Rocket 3.6 19:05:40 66° SSE 19:06:25 81° SW 19:11:50 10° NW
Cosmos 2058 4.4 19:03:27 10° NNW 19:07:11 34° W 19:10:54 10° SSW
Geosat 4.4 19:06:43 31° N 19:09:03 59° WNW 19:13:58 10° SW
Cosmos 2227 Rocket 3.7 19:08:11 10° NW 19:13:12 33° WSW 19:18:12 10° SSW
CSL-04 Rocket 4.3 19:09:04 10° S 19:14:29 54° W 19:19:55 10° NNW
Atlas Centaur 2 4.0 19:12:03 10° WSW 19:19:09 30° S 19:20:08 29° SSE
Cosmos 2263 Rocket 3.3 19:13:54 10° NNW 19:17:16 32° N 19:17:16 32° N
Timation 1 Rocket 4.3 19:14:19 10° NNW 19:20:22 82° WSW 19:20:34 81° SSW
SeaSat 1 3.0 19:26:15 54° NW 19:26:15 54° NW 19:30:09 10° NNW
SL-4 R/B 4.4 19:23:35 10° NW 19:24:38 18° NW 19:24:38 18° NW
Cosmos 1697 Rocket 3.6 19:23:27 10° SW 19:28:49 45° WNW 19:31:25 27° N
CZ-4C R/B 3.7 19:24:12 10° NNW 19:29:36 35° NNE 19:29:36 35° NNE
NOSS 3-4 (A) 3.8 19:25:05 10° NW 19:31:39 67° NNE 19:31:39 67° NNE
NOSS 3-4 (C) 3.8 19:25:12 10° NW 19:31:43 67° NNE 19:31:43 67° NNE
DEBRIS 4.3 19:21:15 10° WSW 19:36:36 68° NNW 19:36:50 68° N
USA 215 3.6 19:39:00 53° N 19:39:00 53° N 19:44:39 10° NW
Cosmos 1980 Rocket 3.5 19:45:54 10° SW 19:49:10 34° WSW 19:49:10 34° WSW
ATLAS 2AS CENTAUR R/B 3.2 19:46:47 10° NW 19:52:43 56° NNW 19:52:43 56° NNW
Lacrosse 5 4.3 20:01:20 10° NW 20:02:41 17° NNW 20:02:41 17° NNW
